Weather History for KIPT - June, 2013

Change the Weather History Date:

Sunday, June 30, 2013

  Actual Average Record
Temperature  
Mean Temperature 74 °F 72 °F  
Max Temperature 86 °F 83 °F 100 °F (1931)
Min Temperature 62 °F 61 °F 46 °F (1988)
Degree Days  
Heating Degree Days 0 0  
Month to date heating degree days 9 36  
Since 1 June heating degree days 9 37  
Since 1 July heating degree days 5669 5995  
Cooling Degree Days 9 7  
Month to date cooling degree days 160 146  
Year to date cooling degree days 231 189  
Since 1 June cooling degree days 160 146  
Growing Degree Days 24 (Base 50)    
Moisture  
Dew Point 64 °F    
Average Humidity 74    
Maximum Humidity 100    
Minimum Humidity 48    
Precipitation  
Precipitation 0.01 in 0.13 in 1.67 in (1928)
Month to date precipitation 4.17 3.92  
Year to date precipitation 16.74 18.83  
Sea Level Pressure  
Sea Level Pressure 29.78 in    
Wind  
Wind Speed 3 mph (ESE)    
Max Wind Speed 20 mph    
Max Gust Speed 24 mph    
Visibility 8 miles    
Events Rain , Thunderstorm    
T = Trace of Precipitation, MM = Missing Value Source: NWS Daily Summary

Daily Weather History Graph

Daily Weather History Graph

Search for Another Location

Airport or City:

Trip Planner

Search our weather history database for the weather conditions in past years. The results will help you decide how hot, cold, wet, or windy it might be!

Date:

Astronomy

Jun. 30, 2013 Rise Set
Actual Time 5:38 AM EDT 8:44 PM EDT
Civil Twilight 5:04 AM EDT 9:18 PM EDT
Nautical Twilight 4:21 AM EDT 10:01 PM EDT
Astronomical Twilight 3:30 AM EDT 10:52 PM EDT
Moon 12:38 AM EDT (6/30) 1:54 PM EDT (6/30)
Length of Visible Light 16h 13m
Length of Day
15h 06m
Last Quarter, 45% of the Moon is Illuminated
Jun 30
Last Quarter
Jul 8
New
Jul 15
First Quarter
Jul 22
Full
Jul 29
Last Quarter

Hourly Weather History & Observations

Time (EDT) Temp. Heat Index Dew Point Humidity Pressure Visibility Wind Dir Wind Speed Gust Speed Precip Events Conditions
12:54 AM 66.0 °F - 62.1 °F 87% 29.70 in 10.0 mi Calm Calm - N/A   Partly Cloudy
1:54 AM 64.9 °F - 62.1 °F 90% 29.70 in 9.0 mi Calm Calm - N/A   Clear
2:54 AM 64.0 °F - 61.0 °F 90% 29.71 in 8.0 mi Calm Calm - N/A   Clear
3:54 AM 63.0 °F - 61.0 °F 93% 29.71 in 8.0 mi Calm Calm - N/A   Clear
4:43 AM 62.6 °F - 60.8 °F 94% 29.73 in 6.0 mi Calm Calm - N/A   Partly Cloudy
4:54 AM 62.1 °F - 60.1 °F 93% 29.73 in 6.0 mi Calm Calm - N/A   Clear
5:05 AM 62.6 °F - 60.8 °F 94% 29.74 in 5.0 mi Calm Calm - N/A   Scattered Clouds
5:12 AM 62.6 °F - 60.8 °F 94% 29.74 in 5.0 mi Calm Calm - N/A   Mostly Cloudy
5:54 AM 63.0 °F - 61.0 °F 93% 29.75 in 4.0 mi Calm Calm - N/A   Overcast
6:54 AM 63.0 °F - 62.1 °F 97% 29.76 in 1.2 mi Calm Calm - N/A   Overcast
7:39 AM 64.4 °F - 62.6 °F 94% 29.78 in 2.0 mi Calm Calm - N/A   Overcast
7:54 AM 64.0 °F - 62.1 °F 93% 29.78 in 2.5 mi Calm Calm - N/A   Overcast
8:05 AM 64.4 °F - 62.6 °F 94% 29.79 in 3.0 mi Calm Calm - N/A   Overcast
8:54 AM 66.0 °F - 62.1 °F 87% 29.79 in 5.0 mi Calm Calm - N/A   Overcast
9:31 AM 69.8 °F - 64.4 °F 83% 29.80 in 8.0 mi Variable 3.5 mph - N/A   Scattered Clouds
9:54 AM 71.1 °F - 64.9 °F 81% 29.79 in 10.0 mi Calm Calm - N/A   Clear
10:54 AM 77.0 °F - 66.0 °F 69% 29.78 in 10.0 mi SSE 3.5 mph - N/A   Clear
11:54 AM 80.1 °F 82.1 °F 66.0 °F 62% 29.78 in 10.0 mi Calm Calm - N/A   Clear
12:54 PM 82.0 °F 83.1 °F 63.0 °F 52% 29.78 in 10.0 mi Variable 4.6 mph - N/A   Clear
1:54 PM 82.0 °F 83.1 °F 63.0 °F 52% 29.77 in 10.0 mi East 4.6 mph - N/A   Partly Cloudy
2:54 PM 84.0 °F 84.5 °F 62.1 °F 47% 29.76 in 10.0 mi SE 4.6 mph - N/A   Scattered Clouds
3:54 PM 84.9 °F 86.6 °F 64.9 °F 51% 29.76 in 10.0 mi Variable 4.6 mph - N/A   Scattered Clouds
4:54 PM 84.9 °F 86.6 °F 64.9 °F 51% 29.75 in 10.0 mi ESE 4.6 mph - N/A   Clear
5:54 PM 82.0 °F 84.9 °F 68.0 °F 62% 29.77 in 10.0 mi Variable 6.9 mph 20.7 mph N/A   Scattered Clouds
6:54 PM 79.0 °F - 66.9 °F 66% 29.78 in 10.0 mi ESE 6.9 mph - N/A   Partly Cloudy
7:54 PM 78.1 °F - 66.9 °F 68% 29.80 in 10.0 mi East 6.9 mph - N/A   Partly Cloudy
8:54 PM 78.1 °F - 66.9 °F 68% 29.82 in 10.0 mi ENE 9.2 mph - N/A   Clear
9:54 PM 75.9 °F - 68.0 °F 76% 29.83 in 10.0 mi ENE 6.9 mph - N/A   Scattered Clouds
10:05 PM 75.2 °F - 68.0 °F 78% 29.85 in 10.0 mi ENE 4.6 mph - N/A Thunderstorm Thunderstorm
10:24 PM 75.2 °F - 68.0 °F 78% 29.86 in 10.0 mi ENE 5.8 mph - 0.00 in   Mostly Cloudy
10:54 PM 73.9 °F - 70.0 °F 87% 29.88 in 10.0 mi WSW 6.9 mph - 0.00 in Rain Light Rain
11:20 PM 71.6 °F - 66.2 °F 83% 29.90 in 10.0 mi WSW 9.2 mph - 0.00 in Rain , Thunderstorm Light Rain
11:40 PM 69.8 °F - 66.2 °F 88% 29.90 in 10.0 mi SSW 3.5 mph - 0.00 in   Mostly Cloudy
11:47 PM 69.8 °F - 66.2 °F 88% 29.90 in 10.0 mi Calm Calm - 0.00 in   Scattered Clouds
11:54 PM 70.0 °F - 66.0 °F 87% 29.89 in 10.0 mi Calm Calm - 0.00 in   Scattered Clouds